This demonstration page uses our WeatherBlox Daily Observations layout. Learn more.

Left ArrowRight Arrow

Hourly Observations for August 29, 2015

Temp ( °F °C ) Dew Point ( °F °C ) Humidity (%) Winds ( mph kmh ) Pressure ( in mb ) Visibility ( mi km ) Precip ( " mm )
12:53 am 00:53 Mostly Cloudy 85 29.4 47 8.3 27 27 SSE 25 41 29.70 1006 10 16 0.00 0.00
1:53 am 01:53 Mostly Cloudy 83 28.3 47 8.3 28 28 S 28 44 29.70 1006 10 16 0.00 0.00
2:53 am 02:53 Mostly Clear 81 27.2 50 10 34 34 S 25 41 29.72 1006 10 16 0.00 0.00
3:53 am 03:53 Clear 79 26.1 52 11.1 39 39 SSE 23 37 29.75 1007 10 16 0.00 0.00
4:53 am 04:53 Clear 78 25.6 53 11.7 42 42 S 18 30 29.77 1008 10 16 0.00 0.00
5:53 am 05:53 Cloudy 77 25 54 12.2 45 45 S 22 35 29.79 1009 10 16 0.00 0.00
6:53 am 06:53 Cloudy 76 24.4 55 12.8 48 48 SSW 10 17 29.83 1010 10 16 0.00 0.00
7:53 am 07:53 Cloudy 74 23.3 58 14.4 57 57 SW 10 17 29.86 1011 10 16 0.00 0.00
8:53 am 08:53 Mostly Cloudy 75 23.9 59 15 58 58 S 20 31 29.86 1011 10 16 0.00 0.00
9:53 am 09:53 Cloudy 78 25.6 59 15 52 52 SSW 18 30 29.88 1012 10 16 0.00 0.00
10:53 am 10:53 Mostly Cloudy 81 27.2 60 15.6 49 49 S 16 26 29.89 1012 10 16 0.00 0.00
11:53 am 11:53 Partly Cloudy 83 28.3 59 15 44 44 S 16 26 29.88 1012 10 16 0.00 0.00
12:53 pm 12:53 Partly Cloudy 84 28.9 59 15 43 43 S 20 31 29.86 1011 10 16 0.00 0.00
1:53 pm 13:53 Sunny 87 30.6 57 13.9 36 36 SSE 21 33 29.85 1011 10 16 0.00 0.00
2:53 pm 14:53 Partly Cloudy 89 31.7 55 12.8 31 31 SSE 21 33 29.83 1010 10 16 0.00 0.00
3:53 pm 15:53 Sunny 89 31.7 52 11.1 28 28 SSE 22 35 29.82 1010 10 16 0.00 0.00
4:53 pm 16:53 Partly Cloudy 89 31.7 49 9.4 25 25 SSE 24 39 29.81 1010 10 16 0.00 0.00
5:53 pm 17:53 Sunny 87 30.6 50 10 28 28 SSE 24 39 29.80 1009 10 16 0.00 0.00
6:53 pm 18:53 Sunny 84 28.9 50 10 31 31 S 24 39 29.81 1010 10 16 0.00 0.00
7:53 pm 19:53 Clear 82 27.8 53 11.7 37 37 S 23 37 29.82 1010 10 16 0.00 0.00
8:53 pm 20:53 Clear 81 27.2 45 7.2 28 28 SSW 12 19 29.85 1011 10 16 0.00 0.00
9:53 pm 21:53 Clear 77 25 45 7.2 32 32 S 8 13 29.86 1011 10 16 0.00 0.00
10:53 pm 22:53 Clear 73 22.8 45 7.2 37 37 Calm 29.87 1011 10 16 0.00 0.00
11:53 pm 23:53 Clear 72 22.2 45 7.2 38 38 SSW 5 7 29.88 1012 10 16 0.00 0.00

Powered by AerisWeather